Wellsville, NY

2:15 PM EDT on May 22, 2018 (GMT -0400)
Wellsville Municipal-Tarantine

Weather History for KELZ - March, 2013

Change the Weather History Date:

Sunday, March 31, 2013

  Actual Average (KDSV) Record (KDSV)
Temperature  
Mean Temperature 42 °F -  
Max Temperature 48 °F 52 °F 85 °F (1977)
Min Temperature 36 °F 30 °F 11 °F (1969)
Degree Days  
Heating Degree Days 23    
Moisture  
Dew Point 31 °F    
Average Humidity 73    
Maximum Humidity 93    
Minimum Humidity 38    
Precipitation  
Precipitation 0.12 in - - ()
Sea Level Pressure  
Sea Level Pressure 29.78 in    
Wind  
Wind Speed 7 mph (SSW)    
Max Wind Speed 16 mph    
Max Gust Speed 26 mph    
Visibility 9 miles    
Events Rain    
Averages and records for this station are not official NWS values.
T = Trace of Precipitation, MM = Missing Value Source: NWS Daily Summary

Daily Weather History Graph

Daily Weather History Graph

Search for Another Location

Airport or City:

Astronomy

Mar. 31, 2013 Rise Set
Actual Time 6:55 AM EDT 7:36 PM EDT
Civil Twilight 6:27 AM EDT 8:05 PM EDT
Nautical Twilight 5:54 AM EDT 8:38 PM EDT
Astronomical Twilight 5:19 AM EDT 9:13 PM EDT
Moon No Moon Rise 9:37 AM EDT (3/31)
Length of Visible Light 13h 37m
Length of Day
12h 40m
Waning Gibbous, 78% of the Moon is Illuminated
Mar 31
Waning Gibbous
Apr 3
Last Quarter
Apr 10
New
Apr 18
First Quarter
Apr 25
Full

Hourly Weather History & Observations

Time (EDT) Temp. Windchill Dew Point Humidity Pressure Visibility Wind Dir Wind Speed Gust Speed Precip Events Conditions
12:56 AM 39.0 °F 34.8 °F 15.1 °F 38% 30.07 in 10.0 mi South 5.8 mph - N/A   Clear
1:56 AM 37.9 °F 34.4 °F 15.1 °F 39% 30.04 in 10.0 mi SSE 4.6 mph - N/A   Clear
2:56 AM 37.0 °F 32.4 °F 16.0 °F 42% 30.02 in 10.0 mi SSE 5.8 mph - N/A   Clear
3:56 AM 37.0 °F 33.3 °F 16.0 °F 42% 30.00 in 10.0 mi SSE 4.6 mph - N/A   Clear
4:56 AM 36.0 °F 30.3 °F 17.1 °F 46% 29.97 in 10.0 mi SSE 6.9 mph - N/A   Clear
5:56 AM 37.9 °F 31.5 °F 16.0 °F 41% 29.94 in 10.0 mi SSE 9.2 mph - N/A   Clear
6:56 AM 39.0 °F 33.4 °F 17.1 °F 41% 29.94 in 10.0 mi South 8.1 mph - N/A   Clear
7:56 AM 41.0 °F 33.9 °F 18.0 °F 40% 29.91 in 10.0 mi SSE 12.7 mph 20.7 mph N/A   Partly Cloudy
8:56 AM 42.1 °F 36.1 °F 19.9 °F 41% 29.88 in 10.0 mi South 10.4 mph 18.4 mph N/A   Clear
9:56 AM 44.1 °F 38.1 °F 21.9 °F 42% 29.85 in 10.0 mi South 11.5 mph 23.0 mph N/A   Scattered Clouds
10:56 AM 46.0 °F 39.3 °F 23.0 °F 40% 29.83 in 10.0 mi SSW 16.1 mph 25.3 mph N/A   Scattered Clouds
11:56 AM 48.0 °F - 25.0 °F 41% 29.82 in 10.0 mi South 15.0 mph 24.2 mph N/A   Scattered Clouds
12:56 PM 46.9 °F - 27.0 °F 46% 29.80 in 10.0 mi SSW 12.7 mph 26.5 mph N/A   Overcast
1:56 PM 42.1 °F 36.1 °F 34.0 °F 73% 29.79 in 9.0 mi South 10.4 mph 18.4 mph 0.00 in Rain Light Rain
2:35 PM 41.0 °F 34.3 °F 35.6 °F 81% 29.74 in 8.0 mi SSW 11.5 mph 21.9 mph 0.01 in Rain Light Rain
2:56 PM 39.9 °F 35.1 °F 35.1 °F 83% 29.78 in 6.0 mi Variable 6.9 mph - 0.02 in Rain Light Rain
3:13 PM 39.2 °F 33.6 °F 35.6 °F 87% 29.73 in 6.0 mi SSW 8.1 mph - 0.02 in Rain Light Rain
3:23 PM 39.2 °F 33.6 °F 35.6 °F 87% 29.73 in 7.0 mi South 8.1 mph - 0.03 in Rain Light Rain
3:30 PM 39.2 °F 35.0 °F 35.6 °F 87% 29.72 in 7.0 mi South 5.8 mph - 0.04 in Rain Light Rain
3:56 PM 39.0 °F 35.7 °F 36.0 °F 89% 29.76 in 8.0 mi South 4.6 mph - 0.05 in Rain Light Rain
4:56 PM 39.0 °F 35.7 °F 36.0 °F 89% 29.74 in 7.0 mi South 4.6 mph - 0.02 in Rain Light Rain
5:56 PM 39.0 °F 35.7 °F 36.0 °F 89% 29.73 in 8.0 mi South 4.6 mph - 0.02 in Rain Light Rain
6:44 PM 39.2 °F 37.0 °F 35.6 °F 87% 29.68 in 10.0 mi SSW 3.5 mph - 0.00 in   Overcast
6:56 PM 37.9 °F 34.4 °F 36.0 °F 93% 29.72 in 10.0 mi South 4.6 mph - 0.00 in   Overcast
7:56 PM 37.9 °F 34.4 °F 36.0 °F 93% 29.71 in 10.0 mi South 4.6 mph - 0.01 in Rain Light Rain
8:25 PM 39.2 °F 35.0 °F 35.6 °F 87% 29.67 in 9.0 mi SSW 5.8 mph - 0.00 in Rain Light Rain
8:48 PM 39.2 °F 35.0 °F 37.4 °F 93% 29.67 in 10.0 mi SSW 5.8 mph - 0.00 in   Overcast
8:56 PM 39.0 °F 35.7 °F 37.0 °F 93% 29.71 in 7.0 mi SSW 4.6 mph - 0.00 in Rain Light Rain
9:19 PM 39.2 °F 35.9 °F 37.4 °F 93% 29.68 in 10.0 mi SW 4.6 mph - 0.00 in   Overcast
9:56 PM 39.0 °F 34.8 °F 37.0 °F 93% 29.71 in 10.0 mi SW 5.8 mph - 0.00 in   Overcast
10:06 PM 39.2 °F 34.2 °F 37.4 °F 93% 29.67 in 10.0 mi SW 6.9 mph - N/A   Overcast
10:16 PM 39.2 °F 34.2 °F 37.4 °F 93% 29.67 in 10.0 mi SW 6.9 mph - N/A   Overcast
10:23 PM 39.2 °F 34.2 °F 37.4 °F 93% 29.67 in 10.0 mi SW 6.9 mph - N/A   Overcast
10:41 PM 39.2 °F 33.6 °F 37.4 °F 93% 29.67 in 10.0 mi WSW 8.1 mph - N/A   Overcast
10:56 PM 39.9 °F 35.8 °F 37.0 °F 89% 29.70 in 10.0 mi WSW 5.8 mph - N/A   Overcast
11:27 PM 39.2 °F 35.9 °F 37.4 °F 93% 29.66 in 10.0 mi WSW 4.6 mph - N/A   Mostly Cloudy
11:34 PM 39.2 °F 34.2 °F 37.4 °F 93% 29.65 in 10.0 mi WSW 6.9 mph - N/A   Mostly Cloudy
11:46 PM 39.2 °F 33.0 °F 37.4 °F 93% 29.65 in 10.0 mi WSW 9.2 mph - N/A   Scattered Clouds
11:56 PM 39.9 °F 33.9 °F 36.0 °F 86% 29.67 in 10.0 mi WSW 9.2 mph - N/A   Partly Cloudy